Theta_e
292 293 293 294 294 294 294 295 295 296 297 297 297 297 297 297 296 295 295 294 293 292 292 291 290 291 291 293 296 299 298 300 292 285 287 287 286 287 286 286 286 286 286
291 291 291 291 292 292 291 292 293 293 293 294 293 293 293 294 293 292 290 290 290 288 288 287 286 288 287 288 290 290 292 294 294 287 285 285 286 285 286 284 284 283 284
290 289 289 289 289 289 289 290 291 291 290 291 290 290 289 289 289 289 288 287 286 286 285 285 285 285 284 285 286 286 287 288 290 289 284 285 283 283 283 283 283 284 283
288 287 287 287 287 287 288 288 288 289 289 288 288 288 288 287 287 287 286 286 285 284 284 283 283 283 283 283 283 284 286 286 286 284 283 282 283 281 282 282 282 282 281
286 286 285 286 286 287 286 287 287 287 287 287 287 287 287 287 286 285 285 285 284 284 285 285 285 285 285 284 284 284 284 284 283 283 281 281 281 280 280 280 279 280 282
284 283 284 285 284 284 285 285 286 286 286 286 286 286 285 285 287 286 285 283 283 283 281 282 283 284 285 285 285 285 284 283 282 282 281 280 279 279 279 278 278 277 279
284 283 285 285 284 283 283 284 284 284 284 284 284 284 284 285 285 285 283 281 280 280 280 280 279 280 281 281 282 282 281 282 282 281 280 279 278 278 277 277 276 276 276
283 284 284 284 283 283 283 283 283 283 283 283 283 284 284 284 284 283 283 281 281 280 280 280 280 280 280 280 280 279 279 280 279 278 279 278 278 278 277 277 275 275 276
282 282 283 284 283 282 282 282 282 282 282 282 283 283 283 283 284 283 282 281 280 279 280 281 281 281 281 281 280 278 278 277 278 279 279 279 279 279 278 277 277 275 275
281 281 282 282 283 282 281 281 281 281 280 281 281 282 283 283 284 283 282 281 280 280 280 281 281 282 281 280 279 279 278 276 276 277 277 277 276 276 276 277 276 274 275
281 281 281 281 281 282 281 281 280 280 280 280 279 280 281 282 283 284 283 281 280 280 280 280 281 281 281 280 279 279 278 277 276 276 277 277 277 276 276 276 276 275 274
280 280 280 280 280 281 280 280 280 280 279 279 279 279 279 280 283 283 283 282 282 281 280 280 280 281 281 280 280 280 280 277 278 277 277 277 277 277 277 276 275 275 275
279 277 278 278 279 280 281 280 280 280 280 279 279 280 279 279 280 281 282 282 282 280 280 279 280 280 281 280 280 280 276 278 277 276 277 277 276 276 274 274 274 273 272
278 277 278 279 279 279 280 280 281 280 280 279 280 280 280 279 279 279 281 281 280 280 279 278 279 279 279 279 276 278 277 277 276 276 276 277 277 275 275 276 273 275 272
277 277 279 279 279 279 278 280 279 279 280 281 281 281 280 281 279 281 281 281 281 280 277 278 279 278 277 277 277 277 277 277 276 277 276 276 276 276 275 275 272 272 270
278 279 279 279 279 278 279 280 279 281 281 281 281 281 281 281 282 283 284 283 283 282 279 279 279 278 278 278 278 278 277 276 277 276 276 276 274 274 274 274 274 271 270
274 275 277 275 278 278 278 278 280 281 280 282 283 284 283 283 283 283 284 284 284 284 281 281 279 279 279 278 277 277 276 276 275 274 274 273 273 273 271 272 272 272 271
270 268 274 276 276 277 277 278 277 278 279 280 279 280 279 280 280 281 281 282 282 281 280 279 278 278 278 277 276 276 275 275 274 273 272 272 271 270 270 270 271 270 269
270 273 272 273 273 273 274 276 276 276 277 277 278 279 275 277 278 277 276 277 276 277 276 276 276 274 274 273 273 273 272 271 271 270 270 270 270 269 268 269 269 267 265
270 266 267 272 273 273 273 273 274 274 274 275 275 276 275 275 276 276 274 272 272 272 271 271 271 271 270 270 270 270 269 270 270 269 269 268 268 268 267 267 267 266 266
269 270 264 271 271 272 272 273 273 273 273 275 273 273 275 273 272 271 270 269 268 268 268 268 268 268 268 268 267 267 267 267 267 266 266 266 266 265 266 266 265 264 264
267 268 268 268 269 270 269 270 270 271 271 271 270 269 270 268 268 267 267 266 265 264 264 264 265 266 265 264 264 264 264 264 265 265 265 264 264 264 264 263 263 263 263
267 268 268 267 268 267 268 268 268 268 267 266 266 266 265 265 264 264 264 263 263 263 263 262 263 262 264 263 263 262 262 263 264 263 262 263 263 263 263 263 262 261 262
266 267 266 266 266 266 266 266 265 264 264 264 264 264 263 263 263 263 262 262 262 263 263 263 262 261 261 262 264 264 263 262 263 262 262 262 262 263 263 263 262 263 262
265 264 264 264 263 264 264 263 263 263 263 263 262 263 263 263 263 263 263 263 262 263 264 264 263 264 264 264 264 264 265 264 264 264 264 263 262 262 263 263 263 263 263
262 262 262 262 262 262 262 262 261 261 261 262 262 262 263 263 263 264 264 263 264 264 264 265 265 265 265 266 266 267 268 270 269 270 268 266 265 265 265 264 264 264 264
Wind_Speed
10 9 11 9 8 8 8 9 6 9 9 10 7 9 8 9 10 6 10 8 10 9 7 7 8 6 3 3 2 3 5 2 4 2 2 4 5 5 4 3 2 3 3
9 11 11 11 9 11 11 10 10 11 10 9 9 10 10 9 9 7 10 10 10 9 8 9 9 5 6 4 4 7 5 4 2 6 3 3 2 2 1 3 3 3 4
9 10 11 9 10 10 11 10 10 11 12 11 12 9 11 10 10 8 12 10 10 10 9 9 8 5 3 3 5 5 4 2 3 4 4 2 2 1 2 2 3 4 3
8 10 10 9 10 9 10 11 10 10 11 10 11 13 11 9 9 8 11 11 11 10 9 8 6 5 4 5 6 6 5 5 6 6 4 3 1 2 1 2 3 3 5
8 10 10 8 9 10 10 10 9 12 10 9 10 10 9 8 6 8 11 10 11 11 10 9 9 9 12 10 5 6 6 5 4 5 3 2 2 1 1 1 3 5 4
9 11 8 8 9 10 10 9 10 10 10 10 11 10 10 7 15 14 11 9 9 10 8 7 7 8 13 17 18 18 12 6 5 3 2 1 2 1 0 2 3 3 3
10 8 10 10 10 10 10 11 10 10 10 10 10 10 10 10 15 15 15 8 8 7 8 6 6 5 6 8 13 15 16 17 13 3 2 2 1 2 2 2 2 3 4
12 12 11 8 9 10 11 11 10 8 9 9 10 10 10 10 15 15 14 10 9 9 7 7 6 6 7 6 7 8 8 9 8 5 5 3 3 1 2 2 3 5 6
11 10 9 9 10 10 10 9 7 8 9 9 8 9 10 9 13 11 10 8 8 8 6 6 5 6 7 6 4 5 5 5 6 7 6 3 2 1 2 2 3 4 3
9 8 7 8 8 8 7 8 7 7 8 6 9 8 8 8 11 10 7 4 7 5 5 5 7 6 7 7 4 3 2 2 2 3 3 3 3 4 5 5 3 5 4
5 6 7 7 7 6 6 5 5 6 5 6 7 7 6 6 8 8 8 4 4 4 3 3 2 5 5 6 6 3 3 1 2 3 4 3 3 3 2 3 4 5 5
5 6 6 5 4 4 5 5 5 4 4 4 4 4 3 3 6 6 6 5 4 2 2 2 2 1 1 1 1 1 2 1 2 4 4 4 4 3 3 3 5 6 7
4 4 4 4 4 3 3 3 3 2 2 2 2 2 2 2 2 5 5 5 3 2 1 1 1 2 2 1 1 3 2 2 3 4 5 5 4 4 4 5 6 7 9
4 3 3 3 3 3 2 2 1 1 1 2 1 1 1 1 2 2 2 1 2 1 2 2 2 1 1 2 3 3 3 3 4 5 6 6 5 4 5 5 6 6 7
1 1 0 0 1 1 1 2 1 2 1 0 0 1 1 1 3 2 1 1 2 2 3 1 2 2 2 3 4 4 3 3 5 5 6 6 7 6 6 5 6 6 7
4 4 3 3 2 2 2 3 4 6 4 4 4 3 1 5 5 5 6 5 5 6 2 3 4 3 4 4 4 4 4 5 5 5 6 7 7 7 7 7 6 8 9
4 4 3 2 3 3 2 3 4 0 2 3 5 5 4 4 5 6 7 7 7 6 6 5 6 5 5 5 5 6 7 6 4 5 6 7 7 7 7 7 7 8 9
4 3 4 3 3 3 3 3 2 3 3 1 1 3 3 3 4 6 6 6 4 3 4 5 6 6 7 7 7 7 6 6 6 6 6 7 6 6 7 8 7 8 8
5 3 3 3 3 3 3 3 3 3 3 3 3 1 4 8 7 6 7 3 3 3 4 5 5 5 5 5 5 6 6 6 6 6 6 6 7 6 7 7 7 8 7
3 4 4 3 2 2 1 2 2 2 2 2 3 3 4 3 3 3 2 2 2 2 3 4 4 4 5 5 6 6 6 6 6 6 6 6 6 6 7 7 7 8 7
4 4 4 2 3 3 2 2 2 1 1 1 3 4 9 3 3 4 4 4 4 4 5 5 5 5 5 5 5 5 5 6 6 5 5 5 5 6 6 6 7 7 7
4 4 4 4 3 3 3 3 3 3 3 3 3 4 9 4 4 3 4 4 4 3 3 4 4 4 4 4 4 5 5 6 6 6 6 5 6 6 6 6 6 6 6
2 3 3 3 3 3 4 5 5 4 4 4 4 4 5 4 4 4 4 4 4 4 3 3 4 5 4 4 4 4 5 6 6 5 6 6 6 6 6 6 6 6 6
4 5 5 5 5 5 5 6 5 7 6 6 5 5 5 5 5 5 5 5 5 5 4 4 4 6 6 5 5 4 5 5 5 6 7 6 6 6 5 6 6 7 7
6 7 7 7 6 6 6 6 6 6 6 5 5 5 5 5 5 5 5 5 4 5 5 4 4 6 7 9 8 9 8 9 8 8 5 6 7 8 7 6 7 7 8
7 7 7 6 6 6 6 6 6 5 5 5 4 4 4 5 5 5 5 5 5 5 7 5 7 10 11 8 9 11 9 10 9 9 6 6 6 6 5 7 9 7 9
Wind_Direction
37 41 50 33 38 49 51 42 35 65 69 73 60 86 74 75 67 55 90 88 84 81 70 87 85 74 50 32 14 56 65 61 109 108 92 154 167 180 183 219 238 267 257
42 48 48 44 35 49 43 33 43 52 59 66 59 62 66 65 75 76 79 74 80 86 81 77 77 65 53 49 39 54 49 32 107 130 141 152 195 181 265 279 250 258 284
36 48 47 47 48 41 48 40 41 50 50 53 63 56 66 61 68 70 78 93 85 71 76 72 67 60 53 56 66 72 62 55 62 127 122 129 102 139 202 245 286 288 269
31 48 49 41 48 48 50 47 42 53 55 50 61 60 57 68 75 87 88 82 79 75 60 62 53 54 60 69 70 72 75 74 73 89 87 104 71 78 31 313 272 251 296
51 53 44 38 50 56 52 58 53 58 55 51 65 70 66 70 76 73 81 82 84 84 73 66 61 63 62 57 70 64 74 88 87 89 88 95 94 91 293 359 292 313 296
48 57 43 51 52 49 46 44 61 64 61 61 59 64 70 72 83 89 95 97 96 95 95 89 72 59 69 70 69 65 56 50 66 64 64 100 125 205 205 345 324 337 313
58 44 54 50 58 58 65 56 35 63 70 65 64 66 71 75 85 86 85 82 86 85 83 80 78 67 67 74 67 63 55 53 49 44 103 58 66 57 344 317 308 288 281
53 48 45 47 57 63 70 73 72 49 61 71 78 80 77 70 77 82 82 85 82 78 79 80 83 70 59 66 74 73 63 55 47 46 57 55 35 56 342 332 324 295 283
53 50 46 52 55 50 52 57 63 79 78 70 61 70 74 73 79 81 82 84 84 80 68 65 79 78 60 56 76 83 79 61 49 47 43 33 5 285 280 258 277 306 290
51 51 52 48 54 69 70 57 48 63 72 73 74 61 55 79 77 81 83 95 98 95 87 82 75 76 73 58 65 59 77 49 22 1 347 329 311 294 278 256 277 271 290
61 63 52 50 55 56 70 68 68 68 65 74 79 71 58 45 71 74 76 82 106 109 108 104 87 83 74 66 54 45 36 90 343 318 306 308 306 280 273 260 258 258 266
47 55 49 49 53 65 75 67 64 69 74 65 82 86 61 37 43 53 73 90 109 114 116 125 131 178 148 127 65 33 25 159 296 307 305 298 296 291 282 261 258 256 257
51 48 42 36 37 29 69 83 88 80 93 85 69 59 54 10 14 19 32 60 85 56 66 82 185 236 274 340 276 283 188 260 290 287 287 294 288 299 291 276 252 261 270
59 33 16 10 13 27 33 20 94 138 111 101 95 91 45 331 327 353 0 2 9 80 69 54 17 335 288 279 275 249 250 256 266 274 284 292 294 263 271 267 276 289 283
49 83 70 142 0 331 296 284 271 244 285 107 159 191 252 64 54 1 285 265 242 216 167 214 240 241 257 246 242 245 250 249 256 264 271 278 279 282 279 278 266 278 260
353 1 353 331 326 321 327 320 247 272 275 268 266 254 256 250 275 290 294 290 282 206 217 260 266 262 265 274 283 288 272 262 265 277 281 282 285 288 293 287 273 269 280
332 318 304 287 298 305 306 308 312 324 343 291 276 286 324 312 294 290 285 280 272 253 252 275 275 277 283 286 287 281 282 284 306 282 283 282 284 283 280 282 282 280 279
322 304 308 311 295 285 274 274 273 279 287 285 5 359 18 342 316 310 304 300 264 220 260 274 280 289 291 287 285 288 290 287 279 279 276 275 280 283 285 280 286 286 294
328 323 319 298 288 295 286 274 267 263 268 282 309 173 360 346 350 36 17 3 330 309 327 315 321 308 295 286 280 281 285 285 293 299 296 299 290 288 284 289 291 288 287
322 318 315 318 321 307 296 283 286 301 308 312 318 347 342 335 340 353 26 352 335 317 315 306 310 308 310 313 316 314 306 306 310 305 298 293 293 292 292 298 295 294 291
334 342 351 329 353 353 348 334 331 288 289 325 40 6 9 338 354 358 356 5 1 352 342 331 324 324 325 318 308 306 304 301 300 300 301 305 308 298 296 291 285 279 280
337 350 4 11 4 22 24 20 28 31 31 27 32 22 19 33 21 12 9 12 2 346 333 320 318 325 321 317 317 308 304 301 304 305 307 302 296 295 292 290 290 291 292
27 41 54 50 42 48 55 45 45 47 49 43 34 29 26 26 20 15 5 356 349 344 344 330 327 325 330 316 301 289 291 295 301 301 293 295 295 294 296 295 297 296 298
46 56 65 61 50 56 53 51 52 47 43 39 33 31 23 16 12 8 2 354 347 346 341 335 325 315 314 308 299 285 270 272 278 280 277 278 287 294 292 291 292 294 294
45 53 52 48 47 51 56 52 49 44 43 38 33 29 21 18 16 9 2 353 345 348 348 340 329 322 318 313 306 304 299 298 275 265 266 261 274 286 286 290 296 298 295
50 54 54 53 55 53 54 56 53 48 43 37 32 29 23 23 18 13 6 2 359 355 350 344 336 336 331 325 324 318 310 312 293 279 241 252 270 281 279 285 291 290 293